星链-6289 (STARLINK-6289 )

导读

STARLINK-6289是美国SpaceX公司星链(Starlink)星座的卫星,于北京时间2023年5月4日8时发射升空。星链项目旨在构建全球卫星互联网,为全球偏远地区、移动场景提供高速宽带服务,支持网络冲浪、远程办公等多元场景,STARLINK-6289的入轨进一步扩充了星链星座的服务覆盖能力,助力全球无缝互联网络的搭建。

基本信息
目录编号:
56408
目录名称:
STARLINK-6289
国际标识:
2023-061AL
轨道中心:
EARTH
卫星名称:
星链-6289
卫星全名:
星链-6289 (STARLINK-6289 )
卫星状态:
在轨 (已飞行1137 天)
发射日期:
2023-05-04 UTC
国别 :
美国 (US)
星等 :
--
轨道信息
数据来源 国际轨道数据
星历时间: 2026-06-14T13:38:31+0800
15小时前
查看轨道信息
半长轴: 6861.247km
偏心率: 0.0001534
轨道倾角: 43.000°
近地点辐角 269.992°
升交点赤经 1.471°
平近点角 90.076°
近地点: 482.057km
远地点: 484.163km
周期: 94.268分钟
每日圈数: 15.275598
详细信息
固有亮度:
5
最大亮度:
2.5
卫星平台:
Starlink v1.5
覆盖范围:
全球
运营商:
太空探索技术公司
运营商所在国:
美国
制造商(研发单位):
太空探索技术公司
制造商所在国:
美国
使用方式:
暂无
卫星简介
星链(Starlink)计划是由太空探索技术公司(SpaceX)提出的一个巨型低轨卫星互联网星座项目,计划在2019年至2024年间在太空搭建由约1.2万颗卫星组成的“星链”网络,其中1584颗将部署在地球上空550千米处的近地轨道,并从2020年开始工作。该卫星仍在工作。
2D轨道图
3D轨道图
轨道高度分析图
轨道倾角分析图
轨道综合分析图
查看轨道综合分析图